Flag for Switzerland Weather past 2 weeks in Emmen, Lucerne, Switzerland

Now
60 °F

Cool.


Feels Like: 60 °F
Forecast: 42 / 64 °F
Wind: 2 mph from Southwest

Location: Giswil

Current Time: Sep 21, 2014 at 2:50:59 AM

Latest Report: Sep 21, 2014 at 2:00 AM


Visibility: N/A

Pressure: 30.07 "Hg

Humidity: 96%

Dew point: 59 °F

Location of EmmenLocation

Historic Weather in Emmen — Graph

°F

Emmen temperature yesterday

Maximum temperature yesterday: 72 °F (at 3:00 PM)
Minimum temperature yesterday: 54 °F (at 6:00 AM)
Average temperature yesterday: 62 °F

Past Weeks' High & Low Weather Summary

 TemperatureHumidityPressure
High76 °F (Sep 7, 4:00 PM)100% (Sep 6, 3:00 AM)30.14 "Hg (Sep 6, 3:00 AM)
Low49 °F (Sep 16, 7:00 AM)52% (Sep 16, 1:00 PM)29.81 "Hg (Sep 17, 5:00 PM)
Average61 °F85%29.99 "Hg
* Reported Sep 6 1:00 AM — Sep 21 1:00 AM, Emmen, Weather by CustomWeather, © 2014

Note: Actual official high and low records may vary slightly from our data, if they occured in-between our weather recording intervals... More about our weather records

Advertising

Emmen weather history for previous 24 hours

 ConditionsComfort  
Time TempWeatherWind HumidityBarometerVisibility
1:00 AM
Sep 21
59 °FCool.No wind98%30.08 "HgN/A
12:00 AM60 °FCool.3 mph96%30.07 "HgN/A
11:00 PM
Sep 20
61 °FCool.2 mph90%30.07 "HgN/A
10:00 PM63 °FMild.6 mph79%30.06 "HgN/A
9:00 PM65 °FMild.9 mph71%30.05 "HgN/A
8:00 PM65 °FMild.9 mph74%30.03 "HgN/A
7:00 PM66 °FMild.12 mph76%30.01 "HgN/A
3:00 PM72 °FMild.1 mph64%29.98 "HgN/A
2:00 PM70 °FMild.1 mph66%29.99 "HgN/A
1:00 PM69 °FMild.1 mph69%30.00 "HgN/A
12:00 PM67 °FMild.2 mph75%30.01 "HgN/A
11:00 AM65 °FMild.3 mph77%30.02 "HgN/A
10:00 AM62 °FCool.1 mph92%30.03 "HgN/A
9:00 AM59 °FCool.1 mph97%30.04 "HgN/A
8:00 AM57 °FCool.1 mph99%30.04 "HgN/A
7:00 AM54 °FCool.1 mph100%30.05 "HgN/A
6:00 AM54 °FCool.1 mph99%30.03 "HgN/A
5:00 AM56 °FCool.3 mph98%30.03 "HgN/A
4:00 AM55 °FCool.2 mph99%30.03 "HgN/A
3:00 AM56 °FCool.1 mph99%30.02 "HgN/A
2:00 AM57 °FCool.1 mph99%30.03 "HgN/A
Weather by CustomWeather, © 2014

See weather overviewHow to use our weather pages